SCP
0 0 0 0 0 0 0 -0 0 -0 -0 -0 -0 -0 -0 -0 -0 -0 -0 -0 -0 -0 -0 -0 -0 -0 -0 -0 -0 -0 -0 -0 -0 -0 -0 -0 -0 -0 -0 -0 -0 -0 -0
0 0 0 0 0 0 0 0 0 -0 -0 -0 -0 -0 -0 -0 -0 -0 -0 -0 -0 -0 -0 -0 -0 -0 -0 -0 -0 -0 -0 -0 -0 -0 -0 -0 -0 -0 -0 -0 -0 -0 -0
0 0 0 -0 0 0 0 0 0 0 0 0 0 0 -0 -0 -0 -0 -0 -0 -0 -0 -0 -0 -0 -0 -0 -0 -0 -0 -0 -0 -0 -0 -0 0 -0 -0 -0 -0 -0 -0 -0
0 0 0 0 0 0 0 0 0 0 0 0 0 0 0 -0 0 0 -0 -0 -0 -0 -0 -0 -0 -0 -0 -0 -0 -0 -0 -0 -0 -0 0 0 0 -0 -0 -0 -0 -0 -0
0 0 0 0 0 0 0 0 0 0 0 0 0 0 -0 -0 -0 0 -0 -0 -0 -0 -0 -0 -0 -0 -0 -0 -0 -0 -0 -0 -0 0 0 -0 -0 -0 -0 -0 -0 -0 0
0 0 0 0 0 0 0 0 0 0 0 -0 0 -0 0 0 -0 -0 -0 -0 -0 -0 -0 -0 -0 -0 -0 -0 -0 -0 -0 -0 0 0 0 -0 -0 -0 -0 -0 -0 0 0
0 0 0 0 0 0 0 0 0 0 -0 -0 -0 -0 0 -0 -0 -0 -0 -0 -0 -0 -0 -0 -0 -0 -0 -0 -0 -0 -0 -0 0 0 -0 -0 -0 0 0 0 0 0 0
0 0 0 0 0 0 0 0 0 -0 0 -0 -0 -0 -0 -0 -0 -0 -0 -0 -0 -0 -0 -0 -0 -0 -0 -0 -0 -0 0 0 0 0 -0 -0 -0 0 0 0 0 0 0
-0 -0 0 0 0 0 0 0 0 -0 -0 -0 -0 -0 -0 -0 -0 -0 -0 -0 -0 -0 -0 -0 -0 -0 -0 -0 -0 0 0 0 0 0 0 0 0 0 0 0 0 0 0
-0 -0 -0 0 0 0 0 0 -0 -0 -0 -0 -0 -0 -0 -0 -0 -0 -0 -0 -0 -0 -0 -0 -0 -0 0 0 0 0 0 0 0 0 0 0 0 0 0 0 0 0 0
-0 -0 -0 -0 -0 -0 -0 0 -0 -0 -0 -0 -0 -0 -0 0 -0 -0 -0 -0 -0 -0 -0 -0 -0 0 0 0 0 0 0 0 0 0 0 -0 0 0 0 0 0 0 0
-0 -0 -0 -0 -0 -0 -0 -0 -0 -0 -0 -0 -0 -0 0 0 0 0 0 0 0 -0 -0 -0 -0 0 0 0 0 0 0 0 0 0 0 0 0 0 0 0 0 0 0
-0 -0 -0 -0 -0 -0 -0 -0 -0 0 0 0 -0 0 0 0 0 0 0 0 0 0 0 0 0 0 0 0 0 0 0 0 0 0 0 0 0 0 0 0 0 0 0
-0 -0 -0 -0 -0 -0 -0 -0 -0 -0 0 0 0 0 0 0 0 0 0 0 0 0 0 0 0 0 0 0 0 0 0 0 0 0 0 0 0 0 0 0 0 0 0
-0 -0 -0 -0 -0 -0 -0 -0 -0 0 0 0 0 0 0 0 0 0 0 0 0 0 0 0 0 0 0 0 0 0 0 0 0 0 0 0 0 0 0 0 0 0 0
0 0 0 -0 0 -0 -0 -0 0 0 0 0 0 0 0 0 0 0 0 0 0 0 0 0 0 0 0 0 0 0 0 0 0 0 0 0 0 0 0 0 0 0 0
0 0 0 0 0 0 -0 -0 0 0 0 0 0 0 0 0 0 0 0 0 0 0 0 0 0 0 0 0 0 0 0 0 0 0 0 0 0 0 0 0 0 0 0
0 0 0 0 0 0 0 0 0 0 0 0 0 0 0 0 0 0 0 0 0 0 0 0 0 0 0 0 0 0 0 0 0 0 0 0 0 0 0 0 0 0 0
0 0 0 0 0 0 0 0 0 0 0 0 0 0 0 0 0 0 0 0 0 0 0 0 0 0 0 0 0 0 0 0 0 0 0 0 0 0 0 0 0 0 0
0 0 0 0 0 0 0 0 0 0 0 0 0 0 0 0 0 0 0 0 0 0 0 0 0 0 0 0 0 0 0 0 0 0 0 0 0 0 0 0 0 0 0
0 0 0 0 0 0 0 0 0 0 0 0 0 0 0 0 0 0 0 0 0 0 0 0 0 0 0 0 0 0 0 0 0 0 0 0 0 0 0 0 0 0 0
0 0 0 0 0 0 0 0 0 0 0 0 0 0 0 0 0 0 0 0 0 0 0 0 0 0 0 0 0 0 0 0 0 0 0 0 0 0 0 0 0 0 0
0 0 0 0 0 0 0 0 0 0 0 0 0 0 0 0 0 0 0 0 0 0 0 0 0 0 0 0 0 0 0 0 0 0 0 0 0 0 0 0 0 0 0
0 0 0 0 0 0 0 0 0 0 0 0 0 0 0 0 0 0 0 0 0 0 0 0 0 0 0 0 0 0 0 0 0 0 0 0 0 0 0 0 0 0 0
0 0 0 0 0 0 0 0 0 0 0 0 0 0 0 0 0 0 0 0 0 0 0 0 0 0 0 0 0 0 0 0 0 0 0 0 0 0 0 0 0 0 0
0 0 0 0 0 0 0 0 0 0 0 0 0 0 0 0 0 0 0 0 0 0 0 0 0 0 0 0 0 0 0 0 0 0 0 0 0 0 0 0 0 0 0
Wind_Speed_500mb
29 23 16 10 13 17 23 26 28 18 20 23 28 21 21 24 26 30 29 27 25 27 35 34 34 34 34 33 33 31 28 26 26 25 23 22 24 25 23 22 22 26 25
27 25 17 13 16 21 25 34 22 15 17 20 26 29 25 26 24 29 29 26 24 26 30 28 29 29 26 26 24 22 20 17 16 16 20 20 19 21 17 16 12 11 11
26 25 21 18 18 21 26 33 21 19 21 22 23 25 25 25 27 25 25 21 17 22 29 30 27 24 24 23 23 21 21 21 18 20 21 24 33 33 23 17 22 30 24
26 27 24 21 20 20 23 30 21 21 23 23 23 23 21 19 13 25 21 19 31 32 30 28 25 24 26 26 26 26 27 27 29 30 31 32 30 31 34 34 31 24 21
28 28 26 22 22 21 20 21 18 20 21 26 26 24 20 18 23 28 30 32 28 26 23 26 26 23 25 28 29 31 30 31 31 29 29 32 33 31 29 27 26 24 25
30 28 28 23 21 21 20 19 17 16 22 24 24 25 23 23 26 25 26 27 28 24 29 27 23 22 25 27 28 27 27 26 25 26 27 30 32 29 23 23 21 27 24
30 30 27 24 21 19 19 19 18 16 21 25 27 26 23 25 23 23 22 23 26 23 28 24 23 22 22 24 27 28 26 25 25 26 27 30 26 25 24 22 27 23 17
28 29 27 24 21 18 18 18 18 17 17 21 23 22 25 23 21 20 22 23 22 21 23 19 19 19 20 23 24 26 28 26 24 26 27 31 34 31 18 22 18 13 12
29 29 29 25 23 19 17 16 16 16 16 15 18 19 16 17 18 20 20 18 17 16 16 16 17 18 18 19 21 23 25 23 22 23 23 29 23 18 14 17 15 9 13
32 30 29 28 24 23 19 16 14 14 14 12 12 13 14 11 11 14 14 13 12 11 12 13 14 16 17 18 19 22 23 22 21 22 20 18 14 17 17 18 13 14 17
38 35 32 30 27 24 21 19 16 13 12 10 9 9 11 11 11 11 10 9 8 7 9 11 13 15 16 16 17 18 21 21 22 22 22 25 21 18 21 22 17 19 21
46 42 36 33 30 27 25 21 19 15 12 9 8 7 8 10 10 11 10 9 6 4 4 7 10 12 13 13 14 16 18 21 20 21 21 20 20 21 24 23 21 22 23
45 43 41 37 34 31 29 25 22 18 15 12 9 7 6 7 7 7 7 7 7 3 2 4 8 10 10 10 12 13 14 18 18 19 18 19 19 20 23 21 20 22 24
46 41 38 39 37 34 32 29 26 22 20 15 12 9 8 5 3 3 3 2 2 2 1 2 6 9 9 9 9 11 11 12 14 14 16 16 16 18 18 19 19 20 21
47 42 40 37 40 38 36 34 30 23 24 21 17 15 14 11 8 6 3 4 5 5 4 5 6 9 7 8 8 8 8 7 9 10 12 14 15 17 19 22 24 25 26
43 40 38 40 42 43 41 38 34 29 28 27 24 21 20 18 16 12 9 7 8 9 9 10 11 11 10 9 8 9 9 11 11 14 15 16 18 21 23 24 24 25 26
45 42 41 33 38 43 43 41 38 34 35 33 31 28 26 25 23 20 16 13 12 13 14 14 15 15 14 13 12 11 12 15 17 18 21 24 26 28 30 31 31 30 31
44 48 43 42 37 40 42 41 40 37 34 33 32 31 27 25 23 24 23 18 19 18 18 17 18 17 17 17 16 17 19 21 24 26 27 29 32 33 34 36 38 37 36
49 50 50 51 47 40 42 42 40 35 36 33 32 31 28 27 28 28 27 21 26 26 24 23 22 22 22 22 24 25 27 30 33 36 38 40 42 41 41 38 37 37 38
59 59 56 55 53 49 46 44 46 46 44 43 41 39 35 34 33 32 31 30 30 33 31 28 25 25 26 28 30 31 33 35 38 40 41 37 32 35 37 34 32 34 35
60 64 63 63 59 57 55 59 49 55 51 51 48 44 43 40 38 37 34 33 33 32 31 29 31 30 31 31 36 35 34 41 42 40 36 27 34 33 32 34 36 38 40
59 58 64 66 64 62 60 62 59 51 54 54 53 52 49 46 44 43 41 38 35 32 29 26 29 30 33 33 40 42 39 43 41 33 39 51 43 40 38 38 36 42 45
63 61 59 59 58 57 59 58 59 56 53 51 52 56 54 52 53 51 48 45 43 41 36 35 36 37 41 44 42 48 17 14 46 51 46 51 44 43 38 37 36 40 40
60 60 56 59 59 54 55 58 57 54 56 53 45 37 37 45 47 50 51 51 50 47 44 43 40 42 38 43 46 42 38 52 40 42 44 56 54 44 41 35 39 40 40
50 55 52 55 60 60 61 61 60 57 55 49 44 37 33 34 40 41 45 49 49 47 45 45 51 48 48 42 51 42 45 49 52 51 54 52 55 41 40 40 35 39 46
51 54 53 52 56 60 62 65 66 64 61 57 51 44 41 36 39 37 35 40 42 42 43 48 49 43 41 44 42 45 51 41 44 46 46 51 44 39 35 35 45 45 45
Wind_Direction_500mb
158 144 131 117 91 97 102 92 93 99 107 110 123 111 102 92 88 83 81 92 90 90 85 84 84 90 91 91 88 86 82 79 78 74 70 71 80 77 77 79 79 81 79
151 142 137 123 96 106 103 105 99 87 91 110 124 123 118 104 97 99 101 100 96 94 93 95 94 95 90 84 80 74 67 59 55 53 52 58 70 74 82 70 70 72 78
150 145 141 125 103 110 111 118 109 98 91 105 116 114 119 114 111 116 117 113 112 92 92 88 88 86 78 68 59 52 47 47 38 46 57 56 63 62 66 60 54 57 70
153 149 143 131 114 110 112 123 118 98 95 106 117 122 124 125 123 109 136 114 92 86 91 94 89 82 71 67 58 54 50 54 62 61 55 56 63 62 67 68 77 67 65
156 154 147 138 126 115 112 127 123 93 91 101 107 116 125 121 97 101 103 99 99 94 95 95 89 84 69 57 55 53 53 57 62 61 61 55 55 68 66 65 72 62 55
160 157 151 143 133 124 119 117 117 95 92 88 91 101 105 100 101 100 105 106 105 100 94 98 91 76 64 54 52 54 56 58 56 57 59 59 60 54 66 65 64 68 62
163 160 158 148 143 133 120 117 111 103 94 96 91 89 91 99 94 94 92 100 106 91 94 89 77 66 58 51 46 44 50 50 56 56 62 64 46 64 58 51 61 83 76
173 167 166 154 151 145 130 121 117 108 100 95 94 93 97 110 94 92 92 94 95 92 86 78 70 61 51 47 44 46 48 56 54 56 69 60 53 72 58 47 66 55 47
182 177 175 167 161 158 147 133 124 115 111 104 95 93 95 97 100 88 88 94 93 87 83 73 65 55 47 47 50 51 54 55 55 62 72 70 63 81 51 32 36 34 20
186 189 186 178 177 171 165 154 138 127 119 113 105 94 89 91 92 93 97 95 94 85 75 69 62 52 45 46 49 48 51 53 60 64 65 68 56 61 52 46 56 37 33
191 194 194 191 189 184 181 176 166 155 140 129 119 106 94 104 109 102 101 101 104 87 59 51 43 40 42 49 50 57 52 54 61 59 53 56 60 42 37 36 45 28 21
193 194 197 200 199 197 196 194 187 179 166 155 145 132 118 120 120 111 101 108 122 114 63 40 32 34 40 48 51 57 57 56 59 54 52 48 43 32 34 34 33 23 21
198 200 199 204 205 206 208 207 206 201 195 185 184 171 158 145 138 132 125 118 122 118 92 23 21 18 25 35 40 47 50 50 51 50 49 47 41 35 30 30 27 14 11
207 207 208 209 212 213 217 218 219 215 214 211 205 208 200 195 193 163 155 150 150 145 157 350 352 357 359 8 22 34 44 41 38 37 37 33 27 20 14 6 6 4 356
212 214 214 218 220 220 222 226 229 228 228 222 222 223 224 221 223 235 242 247 250 253 261 282 308 327 331 339 349 6 17 19 14 14 7 5 4 358 354 349 346 344 344
211 215 218 224 224 225 228 231 233 232 233 235 235 234 233 235 234 237 244 252 256 256 264 276 288 303 310 316 324 336 339 334 333 332 331 331 334 337 335 333 330 327 319
217 220 224 228 228 228 233 233 232 235 236 238 244 244 245 240 238 243 243 245 254 256 259 269 282 292 301 304 309 311 311 312 314 317 320 325 327 326 322 320 315 314 312
223 224 230 233 236 236 239 235 231 233 237 240 242 245 249 249 249 258 252 254 262 265 267 272 276 278 287 291 294 295 300 303 304 306 312 316 315 313 313 313 313 309 308
232 232 235 238 240 244 244 241 238 241 246 242 242 243 248 253 264 267 272 279 270 266 268 273 279 284 286 290 289 291 297 300 302 304 311 313 311 313 312 307 305 303 307
233 236 240 242 244 248 251 243 238 237 239 242 244 246 252 255 259 265 271 273 273 267 269 274 280 287 298 304 304 303 300 299 297 302 311 313 312 325 318 312 311 306 309
234 234 238 238 240 244 245 241 244 242 243 245 247 249 251 254 258 262 265 268 277 284 278 275 277 282 285 288 288 293 288 290 300 308 315 321 311 320 316 312 306 307 311
234 234 236 237 238 243 246 249 248 249 248 250 251 253 256 257 259 262 264 270 274 280 286 288 278 277 278 280 284 293 300 306 303 310 307 310 313 311 321 313 317 321 317
236 234 234 235 236 237 239 242 245 247 248 247 249 249 252 258 259 262 264 264 266 270 274 274 276 278 280 287 289 288 283 276 299 311 306 306 309 314 316 312 307 304 304
240 235 236 233 233 236 239 240 243 247 250 250 257 261 256 251 260 264 266 265 267 268 269 274 274 274 280 284 282 293 298 301 288 295 306 303 314 310 308 307 308 308 310
239 234 235 231 230 231 238 242 244 247 253 256 258 258 257 258 257 258 264 267 267 267 268 269 271 274 278 286 295 286 291 293 293 298 287 302 299 306 309 316 319 320 318
232 234 234 231 230 232 236 242 245 247 249 251 253 255 260 259 266 264 262 261 261 265 269 272 275 276 276 284 281 284 293 298 297 296 298 299 302 305 307 315 316 317 318
Wind_Speed_850mb
29 23 16 10 13 17 23 26 28 18 20 23 28 21 21 24 26 30 29 27 25 27 35 34 34 34 34 33 33 31 28 26 26 25 23 22 24 25 23 22 22 26 25
27 25 17 13 16 21 25 34 22 15 17 20 26 29 25 26 24 29 29 26 24 26 30 28 29 29 26 26 24 22 20 17 16 16 20 20 19 21 17 16 12 11 11
26 25 21 18 18 21 26 33 21 19 21 22 23 25 25 25 27 25 25 21 17 22 29 30 27 24 24 23 23 21 21 21 18 20 21 24 33 33 23 17 22 30 24
26 27 24 21 20 20 23 30 21 21 23 23 23 23 21 19 13 25 21 19 31 32 30 28 25 24 26 26 26 26 27 27 29 30 31 32 30 31 34 34 31 24 21
28 28 26 22 22 21 20 21 18 20 21 26 26 24 20 18 23 28 30 32 28 26 23 26 26 23 25 28 29 31 30 31 31 29 29 32 33 31 29 27 26 24 25
30 28 28 23 21 21 20 19 17 16 22 24 24 25 23 23 26 25 26 27 28 24 29 27 23 22 25 27 28 27 27 26 25 26 27 30 32 29 23 23 21 27 24
30 30 27 24 21 19 19 19 18 16 21 25 27 26 23 25 23 23 22 23 26 23 28 24 23 22 22 24 27 28 26 25 25 26 27 30 26 25 24 22 27 23 17
28 29 27 24 21 18 18 18 18 17 17 21 23 22 25 23 21 20 22 23 22 21 23 19 19 19 20 23 24 26 28 26 24 26 27 31 34 31 18 22 18 13 12
29 29 29 25 23 19 17 16 16 16 16 15 18 19 16 17 18 20 20 18 17 16 16 16 17 18 18 19 21 23 25 23 22 23 23 29 23 18 14 17 15 9 13
32 30 29 28 24 23 19 16 14 14 14 12 12 13 14 11 11 14 14 13 12 11 12 13 14 16 17 18 19 22 23 22 21 22 20 18 14 17 17 18 13 14 17
38 35 32 30 27 24 21 19 16 13 12 10 9 9 11 11 11 11 10 9 8 7 9 11 13 15 16 16 17 18 21 21 22 22 22 25 21 18 21 22 17 19 21
46 42 36 33 30 27 25 21 19 15 12 9 8 7 8 10 10 11 10 9 6 4 4 7 10 12 13 13 14 16 18 21 20 21 21 20 20 21 24 23 21 22 23
45 43 41 37 34 31 29 25 22 18 15 12 9 7 6 7 7 7 7 7 7 3 2 4 8 10 10 10 12 13 14 18 18 19 18 19 19 20 23 21 20 22 24
46 41 38 39 37 34 32 29 26 22 20 15 12 9 8 5 3 3 3 2 2 2 1 2 6 9 9 9 9 11 11 12 14 14 16 16 16 18 18 19 19 20 21
47 42 40 37 40 38 36 34 30 23 24 21 17 15 14 11 8 6 3 4 5 5 4 5 6 9 7 8 8 8 8 7 9 10 12 14 15 17 19 22 24 25 26
43 40 38 40 42 43 41 38 34 29 28 27 24 21 20 18 16 12 9 7 8 9 9 10 11 11 10 9 8 9 9 11 11 14 15 16 18 21 23 24 24 25 26
45 42 41 33 38 43 43 41 38 34 35 33 31 28 26 25 23 20 16 13 12 13 14 14 15 15 14 13 12 11 12 15 17 18 21 24 26 28 30 31 31 30 31
44 48 43 42 37 40 42 41 40 37 34 33 32 31 27 25 23 24 23 18 19 18 18 17 18 17 17 17 16 17 19 21 24 26 27 29 32 33 34 36 38 37 36
49 50 50 51 47 40 42 42 40 35 36 33 32 31 28 27 28 28 27 21 26 26 24 23 22 22 22 22 24 25 27 30 33 36 38 40 42 41 41 38 37 37 38
59 59 56 55 53 49 46 44 46 46 44 43 41 39 35 34 33 32 31 30 30 33 31 28 25 25 26 28 30 31 33 35 38 40 41 37 32 35 37 34 32 34 35
60 64 63 63 59 57 55 59 49 55 51 51 48 44 43 40 38 37 34 33 33 32 31 29 31 30 31 31 36 35 34 41 42 40 36 27 34 33 32 34 36 38 40
59 58 64 66 64 62 60 62 59 51 54 54 53 52 49 46 44 43 41 38 35 32 29 26 29 30 33 33 40 42 39 43 41 33 39 51 43 40 38 38 36 42 45
63 61 59 59 58 57 59 58 59 56 53 51 52 56 54 52 53 51 48 45 43 41 36 35 36 37 41 44 42 48 17 14 46 51 46 51 44 43 38 37 36 40 40
60 60 56 59 59 54 55 58 57 54 56 53 45 37 37 45 47 50 51 51 50 47 44 43 40 42 38 43 46 42 38 52 40 42 44 56 54 44 41 35 39 40 40
50 55 52 55 60 60 61 61 60 57 55 49 44 37 33 34 40 41 45 49 49 47 45 45 51 48 48 42 51 42 45 49 52 51 54 52 55 41 40 40 35 39 46
51 54 53 52 56 60 62 65 66 64 61 57 51 44 41 36 39 37 35 40 42 42 43 48 49 43 41 44 42 45 51 41 44 46 46 51 44 39 35 35 45 45 45
Wind_Direction_850mb
158 144 131 117 91 97 102 92 93 99 107 110 123 111 102 92 88 83 81 92 90 90 85 84 84 90 91 91 88 86 82 79 78 74 70 71 80 77 77 79 79 81 79
151 142 137 123 96 106 103 105 99 87 91 110 124 123 118 104 97 99 101 100 96 94 93 95 94 95 90 84 80 74 67 59 55 53 52 58 70 74 82 70 70 72 78
150 145 141 125 103 110 111 118 109 98 91 105 116 114 119 114 111 116 117 113 112 92 92 88 88 86 78 68 59 52 47 47 38 46 57 56 63 62 66 60 54 57 70
153 149 143 131 114 110 112 123 118 98 95 106 117 122 124 125 123 109 136 114 92 86 91 94 89 82 71 67 58 54 50 54 62 61 55 56 63 62 67 68 77 67 65
156 154 147 138 126 115 112 127 123 93 91 101 107 116 125 121 97 101 103 99 99 94 95 95 89 84 69 57 55 53 53 57 62 61 61 55 55 68 66 65 72 62 55
160 157 151 143 133 124 119 117 117 95 92 88 91 101 105 100 101 100 105 106 105 100 94 98 91 76 64 54 52 54 56 58 56 57 59 59 60 54 66 65 64 68 62
163 160 158 148 143 133 120 117 111 103 94 96 91 89 91 99 94 94 92 100 106 91 94 89 77 66 58 51 46 44 50 50 56 56 62 64 46 64 58 51 61 83 76
173 167 166 154 151 145 130 121 117 108 100 95 94 93 97 110 94 92 92 94 95 92 86 78 70 61 51 47 44 46 48 56 54 56 69 60 53 72 58 47 66 55 47
182 177 175 167 161 158 147 133 124 115 111 104 95 93 95 97 100 88 88 94 93 87 83 73 65 55 47 47 50 51 54 55 55 62 72 70 63 81 51 32 36 34 20
186 189 186 178 177 171 165 154 138 127 119 113 105 94 89 91 92 93 97 95 94 85 75 69 62 52 45 46 49 48 51 53 60 64 65 68 56 61 52 46 56 37 33
191 194 194 191 189 184 181 176 166 155 140 129 119 106 94 104 109 102 101 101 104 87 59 51 43 40 42 49 50 57 52 54 61 59 53 56 60 42 37 36 45 28 21
193 194 197 200 199 197 196 194 187 179 166 155 145 132 118 120 120 111 101 108 122 114 63 40 32 34 40 48 51 57 57 56 59 54 52 48 43 32 34 34 33 23 21
198 200 199 204 205 206 208 207 206 201 195 185 184 171 158 145 138 132 125 118 122 118 92 23 21 18 25 35 40 47 50 50 51 50 49 47 41 35 30 30 27 14 11
207 207 208 209 212 213 217 218 219 215 214 211 205 208 200 195 193 163 155 150 150 145 157 350 352 357 359 8 22 34 44 41 38 37 37 33 27 20 14 6 6 4 356
212 214 214 218 220 220 222 226 229 228 228 222 222 223 224 221 223 235 242 247 250 253 261 282 308 327 331 339 349 6 17 19 14 14 7 5 4 358 354 349 346 344 344
211 215 218 224 224 225 228 231 233 232 233 235 235 234 233 235 234 237 244 252 256 256 264 276 288 303 310 316 324 336 339 334 333 332 331 331 334 337 335 333 330 327 319
217 220 224 228 228 228 233 233 232 235 236 238 244 244 245 240 238 243 243 245 254 256 259 269 282 292 301 304 309 311 311 312 314 317 320 325 327 326 322 320 315 314 312
223 224 230 233 236 236 239 235 231 233 237 240 242 245 249 249 249 258 252 254 262 265 267 272 276 278 287 291 294 295 300 303 304 306 312 316 315 313 313 313 313 309 308
232 232 235 238 240 244 244 241 238 241 246 242 242 243 248 253 264 267 272 279 270 266 268 273 279 284 286 290 289 291 297 300 302 304 311 313 311 313 312 307 305 303 307
233 236 240 242 244 248 251 243 238 237 239 242 244 246 252 255 259 265 271 273 273 267 269 274 280 287 298 304 304 303 300 299 297 302 311 313 312 325 318 312 311 306 309
234 234 238 238 240 244 245 241 244 242 243 245 247 249 251 254 258 262 265 268 277 284 278 275 277 282 285 288 288 293 288 290 300 308 315 321 311 320 316 312 306 307 311
234 234 236 237 238 243 246 249 248 249 248 250 251 253 256 257 259 262 264 270 274 280 286 288 278 277 278 280 284 293 300 306 303 310 307 310 313 311 321 313 317 321 317
236 234 234 235 236 237 239 242 245 247 248 247 249 249 252 258 259 262 264 264 266 270 274 274 276 278 280 287 289 288 283 276 299 311 306 306 309 314 316 312 307 304 304
240 235 236 233 233 236 239 240 243 247 250 250 257 261 256 251 260 264 266 265 267 268 269 274 274 274 280 284 282 293 298 301 288 295 306 303 314 310 308 307 308 308 310
239 234 235 231 230 231 238 242 244 247 253 256 258 258 257 258 257 258 264 267 267 267 268 269 271 274 278 286 295 286 291 293 293 298 287 302 299 306 309 316 319 320 318
232 234 234 231 230 232 236 242 245 247 249 251 253 255 260 259 266 264 262 261 261 265 269 272 275 276 276 284 281 284 293 298 297 296 298 299 302 305 307 315 316 317 318